Location: Pedholt
(56.0260°N, 10.2097°E)
Time: 04:01:04
(UTC+00:00)

Transit 2A Rocket - Pass Details

Date: 30 July 2021
Orbit: 586 x 916 km, 66.7° (Epoch: 21 September)

Event Time Altitude Azimuth Distance (km) Brightness Sun altitude
Rises 20:27:16 0° 312° (NW) 3,135 10.7 -6.8°
Reaches altitude 10° 20:29:37 10° 319° (NW) 2,264 9.3 -7.0°
Maximum altitude 20:34:40 48° 34° (NNE) 1,030 5.8 -7.4°
Drops below altitude 10° 20:40:10 10° 109° (ESE) 2,468 7.1 -7.9°
Enters shadow 20:41:16 - 111° (ESE) 2,865 7.4 -8.0°
Sets 20:42:50 0° 114° (ESE) 3,445 - -8.2°
